When you browse on this site, cookies collect data to enhance your experience and personalize the content and advertising you see.
Visit our Privacy Policy to learn more. By continuing to use the site, you agree to this use of cookies and data.
  • In Österreich
  • Länderverzeichnis
  • Für 7 Tage
  • Wassertemperatur
  • Wetterkarte
  • News
  • Widgets
  • user-avatar
    Anmelden

    Stündliche Wetter Satif

    Heute, 26 Mai, Dienstag

    Zeit Temperatur Niederschläge Wind Luftdruck Luftfeuchtigkeit
    00:00 +16°C° 0 mm 1 m/S 677 mmHg 59%
    01:00 +16°C° 0 mm 1 m/S 677 mmHg 60%
    02:00 +16°C° 0 mm 1 m/S 676 mmHg 60%
    03:00 +15°C° 0 mm 1 m/S 676 mmHg 60%
    04:00 +15°C° 0 mm 0 m/S 676 mmHg 56%
    05:00 +17°C° 0 mm 0 m/S 677 mmHg 52%
    06:00 +18°C° 0 mm 0 m/S 677 mmHg 48%
    07:00 +22°C° 0 mm 1 m/S 678 mmHg 42%
    08:00 +23°C° 0 mm 1 m/S 678 mmHg 35%
    09:00 +25°C° 0 mm 1 m/S 679 mmHg 29%
    10:00 +26°C° 0 mm 2 m/S 679 mmHg 27%
    11:00 +27°C° 0 mm 3 m/S 679 mmHg 26%
    12:00 +28°C° 0 mm 3 m/S 679 mmHg 24%
    13:00 +28°C° 0 mm 4 m/S 679 mmHg 25%
    14:00 +28°C° 0 mm 4 m/S 678 mmHg 26%
    15:00 +28°C° 0 mm 4 m/S 678 mmHg 26%
    16:00 +27°C° 0 mm 4 m/S 677 mmHg 31%
    17:00 +26°C° 0 mm 4 m/S 677 mmHg 35%
    18:00 +23°C° 0 mm 4 m/S 677 mmHg 39%
    19:00 +22°C° 0 mm 3 m/S 676 mmHg 47%
    20:00 +20°C° 0 mm 2 m/S 676 mmHg 54%
    21:00 +20°C° 0 mm 1 m/S 676 mmHg 61%
    22:00 +19°C° 0 mm 1 m/S 676 mmHg 62%
    23:00 +19°C° 0 mm 1 m/S 676 mmHg 63%

    Morgen, 27 Mai, Mittwoch

    Zeit Temperatur Niederschläge Wind Luftdruck Luftfeuchtigkeit
    00:00 +19°C° 0 mm 1 m/S 676 mmHg 65%
    01:00 +18°C° 0 mm 1 m/S 675 mmHg 65%
    02:00 +16°C° 0 mm 0 m/S 675 mmHg 66%
    03:00 +16°C° 0 mm 0 m/S 675 mmHg 67%
    04:00 +16°C° 0 mm 0 m/S 676 mmHg 62%
    05:00 +19°C° 0 mm 1 m/S 676 mmHg 58%
    06:00 +20°C° 0 mm 1 m/S 676 mmHg 54%
    07:00 +22°C° 0 mm 1 m/S 677 mmHg 48%
    08:00 +23°C° 0 mm 1 m/S 677 mmHg 43%
    09:00 +24°C° 0 mm 2 m/S 678 mmHg 37%
    10:00 +25°C° 0 mm 2 m/S 678 mmHg 36%
    11:00 +26°C° 0 mm 3 m/S 678 mmHg 34%
    12:00 +27°C° 0 mm 3 m/S 678 mmHg 33%
    13:00 +27°C° 0.1 mm 3 m/S 678 mmHg 34%
    14:00 +27°C° 0.1 mm 4 m/S 677 mmHg 36%
    15:00 +27°C° 0.1 mm 4 m/S 677 mmHg 37%
    16:00 +26°C° 0.3 mm 4 m/S 677 mmHg 42%
    17:00 +23°C° 0.3 mm 4 m/S 676 mmHg 46%
    18:00 +22°C° 0.3 mm 4 m/S 676 mmHg 50%
    19:00 +21°C° 0.2 mm 4 m/S 676 mmHg 56%
    20:00 +20°C° 0.2 mm 4 m/S 676 mmHg 61%
    21:00 +18°C° 0.2 mm 3 m/S 676 mmHg 66%
    22:00 +18°C° 0.1 mm 3 m/S 676 mmHg 67%
    23:00 +17°C° 0.1 mm 2 m/S 676 mmHg 68%

    übermorgen, 28 Mai, Donnerstag

    Zeit Temperatur Niederschläge Wind Luftdruck Luftfeuchtigkeit
    00:00 +18°C° 0.1 mm 1 m/S 676 mmHg 70%
    01:00 +16°C° 0 mm 1 m/S 676 mmHg 70%
    02:00 +16°C° 0 mm 1 m/S 676 mmHg 70%
    03:00 +16°C° 0 mm 1 m/S 676 mmHg 70%
    04:00 +16°C° 0 mm 2 m/S 676 mmHg 67%
    05:00 +17°C° 0 mm 2 m/S 676 mmHg 64%
    06:00 +17°C° 0 mm 2 m/S 676 mmHg 61%
    07:00 +19°C° 0 mm 3 m/S 677 mmHg 55%
    08:00 +20°C° 0 mm 4 m/S 677 mmHg 49%
    09:00 +21°C° 0 mm 5 m/S 678 mmHg 43%
    10:00 +22°C° 0 mm 5 m/S 677 mmHg 40%
    11:00 +23°C° 0 mm 5 m/S 677 mmHg 38%
    12:00 +25°C° 0 mm 5 m/S 677 mmHg 35%
    13:00 +24°C° 0 mm 6 m/S 677 mmHg 35%
    14:00 +24°C° 0 mm 6 m/S 677 mmHg 35%
    15:00 +24°C° 0 mm 6 m/S 676 mmHg 36%
    16:00 +25°C° 0 mm 5 m/S 676 mmHg 37%
    17:00 +23°C° 0 mm 5 m/S 676 mmHg 39%
    18:00 +23°C° 0 mm 4 m/S 675 mmHg 40%
    19:00 +22°C° 0 mm 4 m/S 675 mmHg 43%
    20:00 +20°C° 0 mm 3 m/S 675 mmHg 46%
    21:00 +19°C° 0 mm 3 m/S 675 mmHg 50%
    22:00 +19°C° 0 mm 3 m/S 675 mmHg 51%
    23:00 +18°C° 0 mm 2 m/S 674 mmHg 52%

    29 Mai, Freitag

    Zeit Temperatur Niederschläge Wind Luftdruck Luftfeuchtigkeit
    00:00 +18°C° 0 mm 2 m/S 674 mmHg 53%
    01:00 +18°C° 0.2 mm 2 m/S 674 mmHg 55%
    02:00 +17°C° 0.2 mm 3 m/S 674 mmHg 56%
    03:00 +17°C° 0.2 mm 3 m/S 673 mmHg 58%
    04:00 +17°C° 0.4 mm 3 m/S 674 mmHg 58%
    05:00 +17°C° 0.4 mm 3 m/S 674 mmHg 59%
    06:00 +18°C° 0.4 mm 3 m/S 674 mmHg 59%
    07:00 +18°C° 0.3 mm 3 m/S 674 mmHg 57%
    08:00 +19°C° 0.3 mm 3 m/S 674 mmHg 55%
    09:00 +20°C° 0.3 mm 3 m/S 674 mmHg 53%
    10:00 +21°C° 0.3 mm 3 m/S 674 mmHg 50%
    11:00 +22°C° 0.3 mm 4 m/S 674 mmHg 47%
    12:00 +23°C° 0.3 mm 4 m/S 674 mmHg 44%
    13:00 +25°C° 0.7 mm 4 m/S 674 mmHg 43%
    14:00 +25°C° 0.7 mm 4 m/S 674 mmHg 43%
    15:00 +25°C° 0.7 mm 4 m/S 673 mmHg 43%
    16:00 +23°C° 0.6 mm 4 m/S 673 mmHg 48%
    17:00 +22°C° 0.6 mm 3 m/S 673 mmHg 53%
    18:00 +21°C° 0.6 mm 3 m/S 673 mmHg 59%
    19:00 +20°C° 0.2 mm 2 m/S 673 mmHg 62%
    20:00 +19°C° 0.2 mm 2 m/S 673 mmHg 65%
    21:00 +18°C° 0.2 mm 2 m/S 673 mmHg 68%
    22:00 +18°C° 0 mm 1 m/S 672 mmHg 69%
    23:00 +18°C° 0 mm 1 m/S 672 mmHg 70%

    30 Mai, Samstag

    Zeit Temperatur Niederschläge Wind Luftdruck Luftfeuchtigkeit
    00:00 +18°C° 0 mm 1 m/S 672 mmHg 71%
    01:00 +16°C° 0 mm 1 m/S 671 mmHg 72%
    02:00 +15°C° 0 mm 0 m/S 671 mmHg 73%
    03:00 +14°C° 0 mm 0 m/S 671 mmHg 74%
    04:00 +15°C° 0 mm 0 m/S 671 mmHg 70%
    05:00 +16°C° 0 mm 0 m/S 671 mmHg 66%
    06:00 +17°C° 0 mm 0 m/S 672 mmHg 62%
    07:00 +18°C° 0 mm 0 m/S 672 mmHg 58%
    08:00 +19°C° 0 mm 0 m/S 672 mmHg 55%
    09:00 +20°C° 0 mm 0 m/S 673 mmHg 51%
    10:00 +23°C° 0.2 mm 1 m/S 673 mmHg 49%
    11:00 +24°C° 0.2 mm 1 m/S 673 mmHg 48%
    12:00 +25°C° 0.2 mm 2 m/S 673 mmHg 46%
    13:00 +25°C° 0.6 mm 2 m/S 673 mmHg 47%
    14:00 +24°C° 0.6 mm 2 m/S 673 mmHg 48%
    15:00 +24°C° 0.6 mm 2 m/S 672 mmHg 49%
    16:00 +22°C° 0.3 mm 3 m/S 672 mmHg 53%
    17:00 +22°C° 0.3 mm 3 m/S 672 mmHg 58%
    18:00 +21°C° 0.3 mm 3 m/S 672 mmHg 63%
    19:00 +20°C° 0.1 mm 3 m/S 672 mmHg 69%
    20:00 +18°C° 0.1 mm 2 m/S 672 mmHg 76%
    21:00 +17°C° 0.1 mm 2 m/S 672 mmHg 82%
    22:00 +17°C° 0 mm 2 m/S 672 mmHg 83%
    23:00 +18°C° 0 mm 1 m/S 671 mmHg 85%

    31 Mai, Sonntag

    Zeit Temperatur Niederschläge Wind Luftdruck Luftfeuchtigkeit
    00:00 +16°C° 0 mm 1 m/S 671 mmHg 86%
    01:00 +16°C° 0 mm 1 m/S 671 mmHg 87%
    02:00 +16°C° 0 mm 1 m/S 671 mmHg 87%
    03:00 +15°C° 0 mm 1 m/S 671 mmHg 88%
    04:00 +16°C° 0 mm 1 m/S 671 mmHg 85%
    05:00 +16°C° 0 mm 1 m/S 671 mmHg 82%
    06:00 +18°C° 0 mm 1 m/S 672 mmHg 80%
    07:00 +19°C° 0 mm 1 m/S 672 mmHg 72%
    08:00 +21°C° 0 mm 1 m/S 673 mmHg 64%
    09:00 +22°C° 0 mm 1 m/S 674 mmHg 56%
    10:00 +24°C° 0 mm 2 m/S 674 mmHg 51%
    11:00 +25°C° 0 mm 2 m/S 674 mmHg 45%
    12:00 +26°C° 0 mm 3 m/S 674 mmHg 40%
    13:00 +27°C° 0 mm 3 m/S 674 mmHg 39%
    14:00 +27°C° 0 mm 3 m/S 674 mmHg 39%
    15:00 +28°C° 0 mm 4 m/S 673 mmHg 39%
    16:00 +27°C° 0 mm 3 m/S 673 mmHg 44%
    17:00 +25°C° 0 mm 3 m/S 673 mmHg 49%
    18:00 +24°C° 0 mm 3 m/S 672 mmHg 55%
    19:00 +22°C° 0 mm 3 m/S 672 mmHg 59%
    20:00 +21°C° 0 mm 3 m/S 672 mmHg 64%
    21:00 +20°C° 0 mm 3 m/S 672 mmHg 69%
    22:00 +20°C° 0 mm 2 m/S 671 mmHg 69%
    23:00 +20°C° 0 mm 2 m/S 671 mmHg 69%
    Mehr zeigen